Location: Newark
(15.4608°S, 41.1635°W)
Time: 23:27:26
(UTC+00:00)

Vanguard 3 - All Passes

Search period start: 30 July 2021 00:00
Search period end: 09 August 2021 00:00
Orbit: 508 x 3261 km, 33.4° (Epoch: 30 July)

Date Brightness Start Highest point End Pass type
(mag) Time Alt. Az. Time Alt. Az. Time Alt. Az.
30 Jul - 04:39:54 10° NNW 04:50:13 27° NNE 04:56:57 10° E visible
30 Jul - 06:54:18 10° WNW 07:03:59 88° NNE 07:09:23 10° ESE visible
30 Jul - 09:12:03 10° WSW 09:15:47 18° SSW 09:18:46 10° SSE daylight
30 Jul - 13:39:15 10° SSW 13:42:21 19° SSE 13:46:16 10° ESE daylight
30 Jul - 15:48:46 10° WSW 15:54:06 80° NNW 16:03:38 10° NE daylight
30 Jul - 18:01:32 10° WNW 18:07:58 24° NNW 18:17:34 10° NNE daylight
31 Jul - 03:24:50 10° N 03:34:00 18° NNE 03:40:51 10° ENE visible
31 Jul - 05:37:39 10° NW 05:49:18 52° NNE 05:55:52 10° ESE visible
31 Jul - 07:54:23 10° W 08:01:46 39° SSW 08:06:23 10° SE visible
31 Jul - 14:35:43 10° SW 14:40:04 50° SSE 14:46:58 10° ENE daylight
31 Jul - 16:46:46 10° W 16:52:32 36° NNW 17:02:04 10° NNE daylight
31 Jul - 19:04:44 10° NW 19:07:59 11° NNW 19:11:40 10° N daylight
01 Aug - 02:11:46 10° N 02:16:51 12° NNE 02:21:22 10° NE visible
01 Aug - 04:21:20 10° NNW 04:33:50 35° NNE 04:41:34 10° E night (unlit)
01 Aug - 06:36:56 10° WNW 06:47:36 77° SSW 06:53:29 10° SE visible
01 Aug - 08:55:50 10° WSW 08:59:40 17° SSW 09:02:42 10° SSE daylight
01 Aug - 13:23:07 10° SSW 13:26:13 21° SSE 13:30:08 10° E daylight
01 Aug - 15:32:57 10° WSW 15:37:51 62° NNW 15:46:14 10° NE daylight
01 Aug - 17:46:42 10° WNW 17:51:45 17° NNW 17:58:37 10° NNE daylight
02 Aug - 03:05:37 10° NNW 03:17:33 24° NNE 03:26:00 10° ENE visible
02 Aug - 05:19:42 10° NW 05:32:51 65° NNE 05:40:04 10° ESE visible
02 Aug - 07:37:36 10° W 07:45:28 35° SSW 07:50:23 10° SE visible
02 Aug - 14:19:43 10° SW 14:23:52 63° SSE 14:30:13 10° ENE daylight
02 Aug - 16:31:23 10° W 16:36:22 26° NNW 16:43:58 10° NNE daylight
03 Aug - 01:51:08 10° N 02:00:25 16° NNE 02:08:05 10° ENE visible
03 Aug - 04:02:53 10° NW 04:17:18 44° NNE 04:25:56 10° E night (unlit)
03 Aug - 06:19:33 10° WNW 06:31:09 66° SSW 06:37:31 10° SE visible
03 Aug - 08:39:29 10° WSW 08:43:34 16° SSW 08:46:43 10° SSE visible
03 Aug - 13:06:55 10° SSW 13:10:07 25° SSE 13:14:02 10° E daylight
03 Aug - 15:17:14 10° WSW 15:21:42 45° NNW 15:28:51 10° NE daylight
03 Aug - 17:33:00 10° NW 17:35:39 12° NNW 17:38:43 10° N daylight
04 Aug - 02:46:44 10° NNW 03:00:56 30° NNE 03:10:41 10° E visible
04 Aug - 05:01:47 10° NW 05:16:17 78° NNE 05:24:10 10° ESE visible
04 Aug - 07:20:47 10° W 07:29:09 32° SSW 07:34:23 10° SSE visible
04 Aug - 11:54:43 10° S 11:56:00 11° SSE 11:57:15 10° SE daylight
04 Aug - 14:03:46 10° WSW 14:07:42 84° SSE 14:13:30 10° ENE daylight
04 Aug - 16:16:21 10° WNW 16:20:17 18° NNW 16:25:40 10° NNE daylight
05 Aug - 01:31:39 10° N 01:43:48 20° NNE 01:53:30 10° ENE visible
05 Aug - 03:44:33 10° NW 04:00:36 53° NNE 04:10:07 10° ESE visible
05 Aug - 06:02:10 10° WNW 06:14:37 59° SSW 06:21:30 10° SE visible
05 Aug - 08:23:01 10° WSW 08:27:28 16° SSW 08:30:52 10° SSE visible
05 Aug - 12:50:41 10° SW 12:54:01 31° SSE 12:57:57 10° E daylight
05 Aug - 15:01:40 10° W 15:05:37 31° NNW 15:11:25 10° NNE daylight
06 Aug - 00:19:11 10° N 00:25:52 12° NNE 00:32:04 10° NE visible
06 Aug - 02:28:05 10° NNW 02:44:08 37° NNE 02:55:03 10° E visible
06 Aug - 04:43:55 10° NW 04:59:34 89° NNE 05:08:09 10° ESE visible
06 Aug - 07:03:54 10° W 07:12:49 31° SSW 07:18:23 10° SSE visible
06 Aug - 11:37:51 10° SSW 11:39:59 14° SSE 11:42:05 10° SE daylight
06 Aug - 13:47:50 10° WSW 13:51:36 70° NNW 13:56:46 10° NE daylight
06 Aug - 16:02:13 10° NW 16:04:16 12° NNW 16:06:36 10° N daylight
07 Aug - 01:12:42 10° NNW 01:26:58 25° NNE 01:38:19 10° E visible
07 Aug - 03:26:19 10° NW 03:43:45 63° NNE 03:54:09 10° ESE visible
07 Aug - 05:44:47 10° WNW 05:58:01 53° SSW 06:05:27 10° SE visible
07 Aug - 08:06:23 10° WSW 08:11:23 17° SSW 08:15:08 10° SSE visible
07 Aug - 12:34:26 10° SW 12:37:58 41° SSE 12:41:52 10° ENE daylight
07 Aug - 14:46:20 10° WNW 14:49:35 21° NNW 14:53:52 10° NNE daylight
07 Aug - 23:59:11 10° N 00:09:11 16° NNE 00:18:20 10° ENE visible
08 Aug - 02:09:37 10° NNW 02:27:09 44° NNE 02:39:11 10° E visible
08 Aug - 04:26:05 10° WNW 04:42:43 81° SSW 04:52:03 10° SE visible
08 Aug - 06:46:57 10° W 06:56:28 30° SSW 07:02:26 10° SE visible
08 Aug - 09:08:17 10° SSW 09:10:24 12° S 09:12:14 10° SSE daylight
08 Aug - 11:21:06 10° SSW 11:24:01 18° SSE 11:26:41 10° ESE daylight
08 Aug - 13:31:59 10° WSW 13:35:33 46° NNW 13:40:02 10° NE daylight
